Date String (YYYY-MM-DD hh:mm:ss) UTC,Instrument flags,absolute air pressure of the measurement (hPa),sample flow rate (lpm),inlet stack bypass flow (lpm),air temperature of the measurement (°C),ambient temperature measured by the external sensor (°C),aerosol sample conditioner tube jacket temperature (°C),OPC LED temperature (°C),internal box temperature (°C),relative humidity of the measurement (%),span deviation,mass concentration of particles derived from Lorenz-Mie calculation of OPC scattering (μg/m³),mass concentration of particles derived from Lorenz-Mie calculation of OPC scattering (μg/m³),mass concentration of particles derived from Lorenz-Mie calculation of OPC scattering (μg/m³)
DateTimeUTC,F1_M11,P_M11,Q1_M11,Q2_M11,T1_M11,T2_M11,T3_M11,T4_M11,T5_M11,U1_M11,ZSPAN_M11,X0_M11,X2_M11,X1_M11
2024-03-11 22:00:00,SystemResetWarning,0824.0,5.00,000.00,022.7,022.1,000.0,031.0,024.5,09.6,0000.0,0031.89,0006.20,0003.31
2024-03-11 22:01:00,SystemResetWarning,0824.0,5.00,000.00,022.7,022.1,000.0,031.0,024.5,09.8,0000.0,0030.96,0006.15,0003.33
2024-03-11 22:02:00,SystemResetWarning,0824.0,5.00,000.00,022.7,022.1,000.0,031.0,024.5,09.6,0000.0,0030.25,0006.17,0003.36
2024-03-11 22:03:00,SystemResetWarning,0824.0,5.00,000.00,022.7,022.1,000.0,031.1,024.5,09.9,0000.0,0029.50,0006.24,0003.41
2024-03-11 22:04:00,SystemResetWarning,0824.0,5.00,000.00,022.8,022.1,000.0,031.1,024.5,10.1,0000.0,0029.15,0006.34,0003.44
2024-03-11 22:05:00,SystemResetWarning,0824.0,4.99,000.00,022.8,022.1,000.0,031.1,024.6,10.4,0000.0,0027.19,0006.31,0003.46
2024-03-11 22:06:00,SystemResetWarning,0824.0,5.00,000.00,022.8,022.2,000.0,031.1,024.6,10.3,0000.0,0025.85,0006.24,0003.46
2024-03-11 22:07:00,SystemResetWarning,0824.0,5.00,000.00,022.8,022.2,000.0,031.1,024.6,10.2,0000.0,0025.18,0006.22,0003.44
2024-03-11 22:08:00,SystemResetWarning,0824.0,5.01,000.00,022.8,022.2,000.0,031.1,024.6,09.9,0000.0,0025.23,0006.18,0003.44
2024-03-11 22:09:00,SystemResetWarning,0824.0,5.01,000.00,022.8,022.2,000.0,031.1,024.6,10.0,0000.0,0024.85,0006.10,0003.42
2024-03-11 22:10:00,SystemResetWarning,0824.0,5.00,000.00,022.8,022.2,000.0,031.1,024.6,10.1,0000.0,0023.64,0006.07,0003.40
2024-03-11 22:11:00,SystemResetWarning,0824.0,5.00,000.00,022.8,022.2,000.0,031.2,024.6,09.9,0000.0,0023.50,0006.10,0003.42
2024-03-11 22:12:00,SystemResetWarning,0823.9,4.99,000.00,022.8,022.2,000.0,031.2,024.6,09.7,0000.0,0023.76,0006.14,0003.41
2024-03-11 22:13:00,SystemResetWarning,0823.9,5.00,000.00,022.9,022.2,000.0,031.2,024.6,09.8,0000.0,0023.56,0006.14,0003.41
2024-03-11 22:14:00,SystemResetWarning,0824.0,5.00,000.00,022.9,022.2,000.0,031.2,024.7,10.3,0000.0,0023.26,0006.02,0003.38
2024-03-11 22:15:00,SystemResetWarning,0824.0,5.01,000.00,022.9,022.2,000.0,031.2,024.7,10.3,0000.0,0023.13,0005.97,0003.36
2024-03-11 22:16:00,SystemResetWarning,0823.9,5.00,000.00,022.9,022.2,000.0,031.2,024.7,10.4,0000.0,0024.70,0005.93,0003.34
2024-03-11 22:17:00,SystemResetWarning,0824.0,5.00,000.00,022.9,022.3,000.0,031.2,024.7,10.6,0000.0,0024.93,0005.97,0003.33
2024-03-11 22:18:00,SystemResetWarning,0823.9,5.00,000.00,022.9,022.3,000.0,031.2,024.7,10.5,0000.0,0025.37,0005.96,0003.33
2024-03-11 22:19:00,SystemResetWarning,0823.9,4.99,000.00,022.9,022.3,000.0,031.2,024.7,10.1,0000.0,0024.09,0005.92,0003.31
2024-03-11 22:20:00,SystemResetWarning,0824.0,4.99,000.00,022.9,022.3,000.0,031.2,024.7,09.5,0000.0,0022.96,0005.95,0003.31
2024-03-11 22:21:00,SystemResetWarning,0823.9,5.00,000.00,022.9,022.3,000.0,031.3,024.8,09.6,0000.0,0022.95,0005.89,0003.30
2024-03-11 22:22:00,SystemResetWarning,0824.0,5.01,000.00,023.0,022.3,000.0,031.3,024.8,09.5,0000.0,0023.48,0005.97,0003.34
2024-03-11 22:23:00,SystemResetWarning,0824.0,5.01,000.00,023.0,022.3,000.0,031.3,024.8,09.4,0000.0,0024.52,0006.00,0003.37
2024-03-11 22:24:00,SystemResetWarning,0823.9,5.01,000.00,023.0,022.3,000.0,031.3,024.8,09.4,0000.0,0026.05,0006.10,0003.42
2024-03-11 22:25:00,SystemResetWarning,0823.9,5.00,000.00,023.0,022.3,000.0,031.3,024.8,09.3,0000.0,0026.82,0006.28,0003.48
2024-03-11 22:26:00,SystemResetWarning,0824.0,5.00,000.00,023.0,022.3,000.0,031.3,024.8,09.2,0000.0,0027.81,0006.35,0003.51
2024-03-11 22:27:00,SystemResetWarning,0824.0,5.00,000.00,023.0,022.3,000.0,031.3,024.8,09.3,0000.0,0026.66,0006.46,0003.55
2024-03-11 22:28:00,SystemResetWarning,0823.9,5.00,000.00,023.0,022.3,000.0,031.3,024.8,09.4,0000.0,0026.89,0006.55,0003.60
2024-03-11 22:29:00,SystemResetWarning,0824.0,5.00,000.00,023.0,022.4,000.0,031.3,024.8,09.4,0000.0,0026.41,0006.61,0003.62
2024-03-11 22:30:00,SystemResetWarning,0823.9,5.00,000.00,023.0,022.4,000.0,031.3,024.8,09.4,0000.0,0026.75,0006.65,0003.63
2024-03-11 22:31:00,SystemResetWarning,0823.9,5.01,000.00,023.0,022.4,000.0,031.4,024.8,09.4,0000.0,0028.23,0006.71,0003.67
2024-03-11 22:32:00,SystemResetWarning,0823.8,5.00,000.00,023.0,022.4,000.0,031.4,024.8,09.4,0000.0,0029.39,0006.75,0003.73
2024-03-11 22:33:00,SystemResetWarning,0823.8,5.01,000.00,023.1,022.4,000.0,031.4,024.9,09.4,0000.0,0029.12,0006.74,0003.74
2024-03-11 22:34:00,SystemResetWarning,0823.9,4.99,000.00,023.1,022.4,000.0,031.4,024.9,09.6,0000.0,0030.11,0006.81,0003.78
2024-03-11 22:35:00,SystemResetWarning,0823.8,4.99,000.00,023.1,022.4,000.0,031.4,024.9,09.4,0000.0,0030.65,0006.82,0003.81
2024-03-11 22:36:00,SystemResetWarning,0823.8,5.00,000.00,023.1,022.4,000.0,031.4,024.9,09.5,0000.0,0030.17,0006.83,0003.81
2024-03-11 22:37:00,SystemResetWarning,0823.8,5.00,000.00,023.1,022.4,000.0,031.4,024.9,09.6,0000.0,0031.80,0006.83,0003.80
2024-03-11 22:38:00,SystemResetWarning,0823.8,5.00,000.00,023.1,022.4,000.0,031.4,024.9,09.5,0000.0,0031.90,0006.82,0003.78
2024-03-11 22:39:00,SystemResetWarning,0823.8,5.00,000.00,023.1,022.4,000.0,031.4,024.9,09.4,0000.0,0031.89,0006.73,0003.75
2024-03-11 22:40:00,SystemResetWarning,0823.9,5.00,000.00,023.1,022.4,000.0,031.4,024.9,09.4,0000.0,0031.51,0006.63,0003.75
2024-03-11 22:41:00,SystemResetWarning,0823.9,5.01,000.00,023.1,022.4,000.0,031.5,024.9,09.3,0000.0,0033.81,0006.69,0003.77
2024-03-11 22:42:00,SystemResetWarning,0823.9,5.00,000.00,023.1,022.4,000.0,031.5,024.9,09.4,0000.0,0032.73,0006.64,0003.73
2024-03-11 22:43:00,SystemResetWarning,0823.8,4.99,000.00,023.1,022.4,000.0,031.5,024.9,09.1,0000.0,0030.75,0006.59,0003.70
2024-03-11 22:44:00,SystemResetWarning,0823.9,4.99,000.00,023.1,022.4,000.0,031.5,024.9,09.1,0000.0,0029.61,0006.51,0003.67
2024-03-11 22:45:00,SystemResetWarning,0824.0,5.00,000.00,023.1,022.4,000.0,031.5,024.9,08.9,0000.0,0027.58,0006.38,0003.59
2024-03-11 22:46:00,SystemResetWarning,0823.9,5.01,000.00,023.1,022.4,000.0,031.5,024.9,08.7,0000.0,0027.20,0006.23,0003.52
2024-03-11 22:47:00,SystemResetWarning,0823.9,5.00,000.00,023.1,022.4,000.0,031.5,024.9,08.8,0000.0,0028.50,0006.14,0003.47
2024-03-11 22:48:00,SystemResetWarning,0823.9,5.00,000.00,023.1,022.4,000.0,031.5,024.9,09.0,0000.0,0027.58,0006.02,0003.44
2024-03-11 22:49:00,SystemResetWarning,0824.0,4.99,000.00,023.1,022.4,000.0,031.5,024.9,09.1,0000.0,0026.60,0005.88,0003.43
2024-03-11 22:50:00,SystemResetWarning,0824.0,4.99,000.00,023.1,022.4,000.0,031.5,024.9,09.0,0000.0,0026.64,0005.83,0003.42
2024-03-11 22:51:00,SystemResetWarning,0823.9,5.00,000.00,023.2,022.4,000.0,031.5,024.9,08.9,0000.0,0027.82,0005.82,0003.40
2024-03-11 22:52:00,SystemResetWarning,0823.9,5.00,000.00,023.2,022.4,000.0,031.5,024.9,08.6,0000.0,0026.74,0005.71,0003.37
2024-03-11 22:53:00,SystemResetWarning,0824.0,5.01,000.00,023.2,022.4,000.0,031.5,024.9,08.5,0000.0,0025.85,0005.69,0003.36
2024-03-11 22:54:00,SystemResetWarning,0823.9,5.01,000.00,023.2,022.4,000.0,031.5,024.9,08.5,0000.0,0025.99,0005.70,0003.35
2024-03-11 22:55:00,SystemResetWarning,0824.0,5.01,000.00,023.2,022.5,000.0,031.6,024.9,08.7,0000.0,0026.39,0005.69,0003.33
2024-03-11 22:56:00,SystemResetWarning,0823.9,5.00,000.00,023.2,022.5,000.0,031.6,024.9,08.7,0000.0,0026.61,0005.71,0003.30
2024-03-11 22:57:00,SystemResetWarning,0823.9,4.99,000.00,023.2,022.5,000.0,031.6,025.0,08.9,0000.0,0026.97,0005.72,0003.28
2024-03-11 22:58:00,SystemResetWarning,0823.9,4.99,000.00,023.2,022.5,000.0,031.6,025.0,09.0,0000.0,0026.51,0005.69,0003.26
2024-03-11 22:59:00,SystemResetWarning,0823.9,5.00,000.00,023.2,022.5,000.0,031.6,025.0,08.8,0000.0,0025.20,0005.68,0003.24
